sat.trackr.live / text

‹ back to catalog

STARLINK-11651 [DTC]

NORAD 63664 · 2025-085A

PAYLOAD ACTIVE UNKNOWN

§ Identity

Operator
Country
US
Launch date
2025-04-28
Launch site
AFETR
Launch vehicle
Mass (kg)
RCS (m²)

Purposes: comms

External: N2YO · Heavens-Above · Gunter

§ Orbital elements

Epoch: 2026-09-20T19:30:22.515840Z

Period
91.67 min
Inclination
42.9990°
Eccentricity
0.0001228
Mean motion
15.70866637 rev/d
Perigee alt
355.6 km
Apogee alt
357.2 km
Semi-major
6,734.6 km
B*
1.2810e-3
RAAN
181.9215°
Arg perigee
282.7275°
Mean anomaly
77.3455°
Rev number
8,094

§ Raw data

STARLINK-11651 [DTC]1 63664U 25085A   26263.81276060  .00167461  00000+0  12810-2 0  99922 63664  42.9990 181.9215 0001228 282.7275  77.3455 15.70866637 80944

JSON: /api/v1/satellites/63664 · /tle

For live sub-satellite position, see the globe view (requires WebGL).

§ Visibility from observer

Set your observer location to see the next 7 days of passes ≥ 10°. The values pass through the URL so the page stays shareable.

No JS? Fill the form by hand. The geolocation button needs JavaScript.